Location: Bagnolo San Vito
(45.0833°N, 10.8833°E)
Time: 23:01:37
(UTC+00:00)

OBJECT-B - Pass Details

Date: 03 March 2021
Orbit: 414 x 427 km, 97.0° (Epoch: 11 April)

Event Time Altitude Azimuth Distance (km) Brightness Sun altitude
Exits shadow 18:05:12 12° 54° (NE) 1,395 2.9 -11.1°
Drops below altitude 10° 18:06:02 10° 39° (NE) 1,513 3.2 -11.3°
Sets 18:08:57 0° 9° (N) 2,381 4.5 -11.8°
